STARLINK-1183, 45088

Orbit data source: Space-Track

STARLINK-1183, 45088 is a payload satellite owned by SpaceX/Seattle (US) in LEO that was launched on Wed, 29 Jan 2020 UTC via an FALCON 9 launch vehicle from the Air Force Eastern Test Range (AFETR). Payload-class satellites include a variety of spacecraft equipped with specific instruments for various scientific and technological missions. These include communications satellites like Starlink; space stations such as the ISS; scientific satellites like the Hubble; Earth observation satellites from companies like Planet Labs, Umbra, and HawkEye 360; GPS; miniature CubeSats for education and research; and military/defense satellites.

Loading next visibility...
Identifier
45088, 2020-006AW
Orbit
LEO
Country
Flag of USUS
Related business
Manufacturer
SpaceX/Seattle
Mission
Partially operational Commercial Communications
Bus & Motor
STARLINK, Unknown motor
Mass
260 kg wet, ~248 kg dry
Launch date (UTC)
2020-01-29 (6 years ago)
Launch vehicle
FALCON 9
Launch site
Air Force Eastern Test Range (AFETR)
Object type
Payload
Rocket body
Debris
Shape & HBR
Box + 1 Pan, 10.1 m
Radar Cross Section
13.562 m², Large (>1 m²)

Expand to show TLE details & history
Last TLE update: 5 hours ago

TLE from 5 hours ago
0 STARLINK-1183
1 45088U 20006AW  26170.90267153  .00011676  00000-0  34002-3 0  9995
2 45088  53.1562 126.3627 0005163  59.0899 301.0612 15.35863773352754
Epoch: 2026-06-19T21:39Z
TLE epoch observation values (Epoch: 2026-06-19T21:39:50.820Z)
Latitude
0.00005°
Longitude
-106.72399°
Altitude
457.438 km
Speed
7.64 km/s
True Right ascension
08h 25m 27s
True Declination
0° 00' 00"
Sunlit
Object was in daylight at epoch
Visualization orbit readout
Latitude
Unknown
Longitude
Unknown
Altitude
Unknown
Speed
Unknown
Apparent Right ascension
Unknown
Apparent Declination
Unknown
Sunlit
N/A
Visualization observer readout
Local Sidereal Time
13:41:26
Azimuth
Unknown
Elevation
Unknown
Doppler factor
Unknown
Orbital elements
Apogee altitude
462.144 km
Perigee altitude
455.084 km
Semi-major axis
6,836.751 km
Eccentricity
0.00052
Inclination
53.1562°
RAAN
126.3627°
Arg. of periapsis
59.0899°
True anomaly
301.0105°
Mean anomaly
301.0612°
Eccentric anomaly
301.03585°
Mean motion
3.83945 °/min
Orbital period
93.76 mins
BSTAR
0.00034002
Loading maneuver chart data...
Computing Atmospheric mass density...

Documentation

Showing up to 5 results
|